Year,Month,Day,Hour,Minute,Value (Times are PST for temperature in C)
2020,08,14,00,00,13.20
2020,08,14,00,01,13.20
2020,08,14,00,02,13.20
2020,08,14,00,03,13.20
2020,08,14,00,04,13.10
2020,08,14,00,05,13.10
2020,08,14,00,06,13.10
2020,08,14,00,07,13.10
2020,08,14,00,08,13.00
2020,08,14,00,09,13.00
2020,08,14,00,10,13.00
2020,08,14,00,11,13.00
2020,08,14,00,12,13.00
2020,08,14,00,13,12.90
2020,08,14,00,14,12.90
2020,08,14,00,15,12.90
2020,08,14,00,16,12.90
2020,08,14,00,17,12.90
2020,08,14,00,18,12.90
2020,08,14,00,19,12.80
2020,08,14,00,20,12.80
2020,08,14,00,21,12.80
2020,08,14,00,22,12.80
2020,08,14,00,23,12.80
2020,08,14,00,24,12.80
2020,08,14,00,25,12.80
2020,08,14,00,26,12.80
2020,08,14,00,27,12.80
2020,08,14,00,28,12.80
2020,08,14,00,29,12.70
2020,08,14,00,30,12.70
2020,08,14,00,31,12.70
2020,08,14,00,32,12.60
2020,08,14,00,33,12.60
2020,08,14,00,34,12.60
2020,08,14,00,35,12.60
2020,08,14,00,36,12.60
2020,08,14,00,37,12.60
2020,08,14,00,38,12.60
2020,08,14,00,39,12.60
2020,08,14,00,40,12.60
2020,08,14,00,41,12.70
2020,08,14,00,42,12.70
2020,08,14,00,43,12.70
2020,08,14,00,44,12.70
2020,08,14,00,45,12.70
2020,08,14,00,46,12.70
2020,08,14,00,47,12.70
2020,08,14,00,48,12.70
2020,08,14,00,49,12.70
2020,08,14,00,50,12.70
2020,08,14,00,51,12.70
2020,08,14,00,52,12.60
2020,08,14,00,53,12.60
2020,08,14,00,54,12.60
2020,08,14,00,55,12.60
2020,08,14,00,56,12.60
2020,08,14,00,57,12.60
2020,08,14,00,58,12.50
2020,08,14,00,59,12.50
2020,08,14,01,00,12.50
2020,08,14,01,01,12.50
2020,08,14,01,02,12.50
2020,08,14,01,03,12.50
2020,08,14,01,04,12.40
2020,08,14,01,05,12.40
2020,08,14,01,06,12.40
2020,08,14,01,07,12.40
2020,08,14,01,08,12.40
2020,08,14,01,09,12.40
2020,08,14,01,10,12.40
2020,08,14,01,11,12.30
2020,08,14,01,12,12.30
2020,08,14,01,13,12.30
2020,08,14,01,14,12.30
2020,08,14,01,15,12.30
2020,08,14,01,16,12.30
2020,08,14,01,17,12.30
2020,08,14,01,18,12.30
2020,08,14,01,19,12.30
2020,08,14,01,20,12.30
2020,08,14,01,21,12.20
2020,08,14,01,22,12.20
2020,08,14,01,23,12.20
2020,08,14,01,24,12.20
2020,08,14,01,25,12.20
2020,08,14,01,26,12.20
2020,08,14,01,27,12.20
2020,08,14,01,28,12.10
2020,08,14,01,29,12.10
2020,08,14,01,30,12.10
2020,08,14,01,31,12.10
2020,08,14,01,32,12.10
2020,08,14,01,33,12.10
2020,08,14,01,34,12.10
2020,08,14,01,35,12.10
2020,08,14,01,36,12.10
2020,08,14,01,37,12.00
2020,08,14,01,38,12.00
2020,08,14,01,39,12.00
2020,08,14,01,40,12.00
2020,08,14,01,41,12.00
2020,08,14,01,42,12.00
2020,08,14,01,43,12.00
2020,08,14,01,44,11.90
2020,08,14,01,45,11.90
2020,08,14,01,46,11.90
2020,08,14,01,47,11.90
2020,08,14,01,48,11.90
2020,08,14,01,49,11.80
2020,08,14,01,50,11.80
2020,08,14,01,51,11.80
2020,08,14,01,52,11.80
2020,08,14,01,53,11.80
2020,08,14,01,54,11.80
2020,08,14,01,55,11.80
2020,08,14,01,56,11.80
2020,08,14,01,57,11.70
2020,08,14,01,58,11.70
2020,08,14,01,59,11.70
2020,08,14,02,00,11.70
2020,08,14,02,01,11.70
2020,08,14,02,02,11.70
2020,08,14,02,03,11.70
2020,08,14,02,04,11.70
2020,08,14,02,05,11.70
2020,08,14,02,06,11.60
2020,08,14,02,07,11.60
2020,08,14,02,08,11.60
2020,08,14,02,09,11.60
2020,08,14,02,10,11.60
2020,08,14,02,11,11.60
2020,08,14,02,12,11.60
2020,08,14,02,13,11.60
2020,08,14,02,14,11.60
2020,08,14,02,15,11.60
2020,08,14,02,16,11.60
2020,08,14,02,17,11.60
2020,08,14,02,18,11.50
2020,08,14,02,19,11.40
2020,08,14,02,20,11.40
2020,08,14,02,21,11.40
2020,08,14,02,22,11.40
2020,08,14,02,23,11.40
2020,08,14,02,24,11.40
2020,08,14,02,25,11.40
2020,08,14,02,26,11.30
2020,08,14,02,27,11.30
2020,08,14,02,28,11.30
2020,08,14,02,29,11.30
2020,08,14,02,30,11.30
2020,08,14,02,31,11.30
2020,08,14,02,32,11.20
2020,08,14,02,33,11.20
2020,08,14,02,34,11.20
2020,08,14,02,35,11.20
2020,08,14,02,36,11.20
2020,08,14,02,37,11.20
2020,08,14,02,38,11.10
2020,08,14,02,39,11.10
2020,08,14,02,40,11.10
2020,08,14,02,41,11.10
2020,08,14,02,42,11.10
2020,08,14,02,43,11.10
2020,08,14,02,44,11.10
2020,08,14,02,45,11.10
2020,08,14,02,46,11.10
2020,08,14,02,47,11.10
2020,08,14,02,48,11.10
2020,08,14,02,49,11.10
2020,08,14,02,50,11.10
2020,08,14,02,51,11.10
2020,08,14,02,52,11.10
2020,08,14,02,53,11.10
2020,08,14,02,54,11.10
2020,08,14,02,55,11.10
2020,08,14,02,56,11.00
2020,08,14,02,57,10.90
2020,08,14,02,58,10.90
2020,08,14,02,59,10.90
2020,08,14,03,00,10.90
2020,08,14,03,01,10.90
2020,08,14,03,02,10.90
2020,08,14,03,03,10.90
2020,08,14,03,04,10.90
2020,08,14,03,05,10.90
2020,08,14,03,06,10.90
2020,08,14,03,07,10.90
2020,08,14,03,08,10.90
2020,08,14,03,09,10.90
2020,08,14,03,10,10.90
2020,08,14,03,11,10.90
2020,08,14,03,12,10.90
2020,08,14,03,13,10.90
2020,08,14,03,14,10.90
2020,08,14,03,15,10.90
2020,08,14,03,16,10.90
2020,08,14,03,17,10.90
2020,08,14,03,18,10.90
2020,08,14,03,19,10.80
2020,08,14,03,20,10.80
2020,08,14,03,21,10.80
2020,08,14,03,22,10.80
2020,08,14,03,23,10.80
2020,08,14,03,24,10.80
2020,08,14,03,25,10.90
2020,08,14,03,26,10.90
2020,08,14,03,27,10.90
2020,08,14,03,28,10.90
2020,08,14,03,29,10.80
2020,08,14,03,30,10.80
2020,08,14,03,31,10.80
2020,08,14,03,32,10.80
2020,08,14,03,33,10.80
2020,08,14,03,34,10.80
2020,08,14,03,35,10.80
2020,08,14,03,36,10.80
2020,08,14,03,37,10.80
2020,08,14,03,38,10.80
2020,08,14,03,39,10.80
2020,08,14,03,40,10.80
2020,08,14,03,41,10.80
2020,08,14,03,42,10.80
2020,08,14,03,43,10.80
2020,08,14,03,44,10.80
2020,08,14,03,45,10.80
2020,08,14,03,46,10.70
2020,08,14,03,47,10.70
2020,08,14,03,48,10.70
2020,08,14,03,49,10.70
2020,08,14,03,50,10.70
2020,08,14,03,51,10.70
2020,08,14,03,52,10.70
2020,08,14,03,53,10.60
2020,08,14,03,54,10.60
2020,08,14,03,55,10.60
2020,08,14,03,56,10.60
2020,08,14,03,57,10.60
2020,08,14,03,58,10.60
2020,08,14,03,59,10.60
2020,08,14,04,00,10.60
2020,08,14,04,01,10.60
2020,08,14,04,02,10.60
2020,08,14,04,03,10.60
2020,08,14,04,04,10.60
2020,08,14,04,05,10.60
2020,08,14,04,06,10.60
2020,08,14,04,07,10.40
2020,08,14,04,08,10.40
2020,08,14,04,09,10.40
2020,08,14,04,10,10.40
2020,08,14,04,11,10.40
2020,08,14,04,12,10.50
2020,08,14,04,13,10.60
2020,08,14,04,14,10.60
2020,08,14,04,15,10.60
2020,08,14,04,16,10.60
2020,08,14,04,17,10.60
2020,08,14,04,18,10.60
2020,08,14,04,19,10.60
2020,08,14,04,20,10.60
2020,08,14,04,21,10.50
2020,08,14,04,22,10.40
2020,08,14,04,23,10.40
2020,08,14,04,24,10.40
2020,08,14,04,25,10.40
2020,08,14,04,26,10.40
2020,08,14,04,27,10.40
2020,08,14,04,28,10.40
2020,08,14,04,29,10.40
2020,08,14,04,30,10.30
2020,08,14,04,31,10.30
2020,08,14,04,32,10.30
2020,08,14,04,33,10.30
2020,08,14,04,34,10.30
2020,08,14,04,35,10.30
2020,08,14,04,36,10.30
2020,08,14,04,37,10.30
2020,08,14,04,38,10.30
2020,08,14,04,39,10.30
2020,08,14,04,40,10.30
2020,08,14,04,41,10.30
2020,08,14,04,42,10.20
2020,08,14,04,43,10.20
2020,08,14,04,44,10.20
2020,08,14,04,45,10.20
2020,08,14,04,46,10.20
2020,08,14,04,47,10.10
2020,08,14,04,48,10.10
2020,08,14,04,49,10.10
2020,08,14,04,50,10.10
2020,08,14,04,51,10.10
2020,08,14,04,52,10.10
2020,08,14,04,53,10.10
2020,08,14,04,54,10.10
2020,08,14,04,55,10.10
2020,08,14,04,56,10.10
2020,08,14,04,57,10.00
2020,08,14,04,58,9.90
2020,08,14,04,59,9.90
2020,08,14,05,00,9.90
2020,08,14,05,01,9.90
2020,08,14,05,02,9.90
2020,08,14,05,03,9.90
2020,08,14,05,04,9.90
2020,08,14,05,05,9.90
2020,08,14,05,06,9.90
2020,08,14,05,07,9.90
2020,08,14,05,08,9.90
2020,08,14,05,09,9.90
2020,08,14,05,10,9.90
2020,08,14,05,11,9.90
2020,08,14,05,12,10.00
2020,08,14,05,13,10.10
2020,08,14,05,14,10.10
2020,08,14,05,15,10.10
2020,08,14,05,16,10.10
2020,08,14,05,17,10.10
2020,08,14,05,18,10.10
2020,08,14,05,19,10.10
2020,08,14,05,20,10.10
2020,08,14,05,21,10.10
2020,08,14,05,22,10.00
2020,08,14,05,23,9.90
2020,08,14,05,24,9.90
2020,08,14,05,25,9.90
2020,08,14,05,26,9.90
2020,08,14,05,27,9.90
2020,08,14,05,28,9.90
2020,08,14,05,29,9.90
2020,08,14,05,30,9.90
2020,08,14,05,31,9.80
2020,08,14,05,32,9.80
2020,08,14,05,33,9.80
2020,08,14,05,34,9.80
2020,08,14,05,35,9.80
2020,08,14,05,36,9.80
2020,08,14,05,37,9.70
2020,08,14,05,38,9.70
2020,08,14,05,39,9.70
2020,08,14,05,40,9.70
2020,08,14,05,41,9.70
2020,08,14,05,42,9.70
2020,08,14,05,43,9.70
2020,08,14,05,44,9.70
2020,08,14,05,45,9.70
2020,08,14,05,46,9.70
2020,08,14,05,47,9.70
2020,08,14,05,48,9.70
2020,08,14,05,49,9.70
2020,08,14,05,50,9.70
2020,08,14,05,51,9.70
2020,08,14,05,52,9.70
2020,08,14,05,53,9.70
2020,08,14,05,54,9.70
2020,08,14,05,55,9.70
2020,08,14,05,56,9.70
2020,08,14,05,57,9.70
2020,08,14,05,58,9.70
2020,08,14,05,59,9.70
2020,08,14,06,00,9.70
2020,08,14,06,01,9.70
2020,08,14,06,02,9.70
2020,08,14,06,03,9.70
2020,08,14,06,04,9.70
2020,08,14,06,05,9.70
2020,08,14,06,06,9.70
2020,08,14,06,07,9.70
2020,08,14,06,08,9.70
2020,08,14,06,09,9.60
2020,08,14,06,10,9.60
2020,08,14,06,11,9.70
2020,08,14,06,12,9.70
2020,08,14,06,13,9.70
2020,08,14,06,14,9.70
2020,08,14,06,15,9.70
2020,08,14,06,16,9.70
2020,08,14,06,17,9.70
2020,08,14,06,18,9.70
2020,08,14,06,19,9.70
2020,08,14,06,20,9.70
2020,08,14,06,21,9.70
2020,08,14,06,22,9.70
2020,08,14,06,23,9.70
2020,08,14,06,24,9.70
2020,08,14,06,25,9.70
2020,08,14,06,26,9.70
2020,08,14,06,27,9.70
2020,08,14,06,28,9.70
2020,08,14,06,29,9.70
2020,08,14,06,30,9.70
2020,08,14,06,31,9.70
2020,08,14,06,32,9.70
2020,08,14,06,33,9.70
2020,08,14,06,34,9.70
2020,08,14,06,35,9.70
2020,08,14,06,36,9.70
2020,08,14,06,37,9.70
2020,08,14,06,38,9.80
2020,08,14,06,39,9.80
2020,08,14,06,40,9.80
2020,08,14,06,41,9.90
2020,08,14,06,42,9.90
2020,08,14,06,43,9.90
2020,08,14,06,44,9.90
2020,08,14,06,45,9.90
2020,08,14,06,46,9.90
2020,08,14,06,47,9.90
2020,08,14,06,48,9.90
2020,08,14,06,49,9.90
2020,08,14,06,50,10.10
2020,08,14,06,51,10.10
2020,08,14,06,52,10.10
2020,08,14,06,53,10.10
2020,08,14,06,54,10.10
2020,08,14,06,55,10.20
2020,08,14,06,56,10.20
2020,08,14,06,57,10.30
2020,08,14,06,58,10.30
2020,08,14,06,59,10.40
2020,08,14,07,00,10.40
2020,08,14,07,01,10.50
2020,08,14,07,02,10.60
2020,08,14,07,03,10.60
2020,08,14,07,04,10.60
2020,08,14,07,05,10.60
2020,08,14,07,06,10.70
2020,08,14,07,07,10.70
2020,08,14,07,08,10.70
2020,08,14,07,09,10.80
2020,08,14,07,10,10.80
2020,08,14,07,11,10.90
2020,08,14,07,12,10.90
2020,08,14,07,13,10.90
2020,08,14,07,14,10.90
2020,08,14,07,15,11.10
2020,08,14,07,16,11.10
2020,08,14,07,17,11.10
2020,08,14,07,18,11.20
2020,08,14,07,19,11.30
2020,08,14,07,20,11.40
2020,08,14,07,21,11.50
2020,08,14,07,22,11.60
2020,08,14,07,23,11.70
2020,08,14,07,24,11.80
2020,08,14,07,25,11.80
2020,08,14,07,26,12.00
2020,08,14,07,27,12.00
2020,08,14,07,28,12.10
2020,08,14,07,29,12.20
2020,08,14,07,30,12.30
2020,08,14,07,31,12.30
2020,08,14,07,32,12.50
2020,08,14,07,33,12.60
2020,08,14,07,34,12.70
2020,08,14,07,35,12.80
2020,08,14,07,36,12.90
2020,08,14,07,37,13.00
2020,08,14,07,38,13.10
2020,08,14,07,39,13.20
2020,08,14,07,40,13.30
2020,08,14,07,41,13.40
2020,08,14,07,42,13.50
2020,08,14,07,43,13.60
2020,08,14,07,44,13.70
2020,08,14,07,45,13.80
2020,08,14,07,46,13.90
2020,08,14,07,47,14.00
2020,08,14,07,48,14.10
2020,08,14,07,49,14.20
2020,08,14,07,50,14.20
2020,08,14,07,51,14.30
2020,08,14,07,52,14.30
2020,08,14,07,53,14.40
2020,08,14,07,54,14.40
2020,08,14,07,55,14.40
2020,08,14,07,56,14.50
2020,08,14,07,57,14.50
2020,08,14,07,58,14.60
2020,08,14,07,59,14.70
2020,08,14,08,00,14.70
2020,08,14,08,01,14.80
2020,08,14,08,02,14.80
2020,08,14,08,03,14.90
2020,08,14,08,04,15.00
2020,08,14,08,05,15.10
2020,08,14,08,06,15.20
2020,08,14,08,07,15.30
2020,08,14,08,08,15.40
2020,08,14,08,09,15.50
2020,08,14,08,10,15.60
2020,08,14,08,11,15.70
2020,08,14,08,12,15.80
2020,08,14,08,13,15.80
2020,08,14,08,14,15.90
2020,08,14,08,15,15.90
2020,08,14,08,16,15.90
2020,08,14,08,17,15.90
2020,08,14,08,18,15.90
2020,08,14,08,19,15.90
2020,08,14,08,20,15.90
2020,08,14,08,21,15.90
2020,08,14,08,22,15.90
2020,08,14,08,23,15.90
2020,08,14,08,24,16.00
2020,08,14,08,25,16.10
2020,08,14,08,26,16.10
2020,08,14,08,27,16.10
2020,08,14,08,28,16.10
2020,08,14,08,29,16.20
2020,08,14,08,30,16.20
2020,08,14,08,31,16.20
2020,08,14,08,32,16.30
2020,08,14,08,33,16.40
2020,08,14,08,34,16.40
2020,08,14,08,35,16.50
2020,08,14,08,36,16.60
2020,08,14,08,37,16.60
2020,08,14,08,38,16.70
2020,08,14,08,39,16.70
2020,08,14,08,40,16.80
2020,08,14,08,41,16.90
2020,08,14,08,42,17.00
2020,08,14,08,43,17.10
2020,08,14,08,44,17.10
2020,08,14,08,45,17.20
2020,08,14,08,46,17.30
2020,08,14,08,47,17.30
2020,08,14,08,48,17.40
2020,08,14,08,49,17.50
2020,08,14,08,50,17.50
2020,08,14,08,51,17.70
2020,08,14,08,52,17.70
2020,08,14,08,53,17.80
2020,08,14,08,54,17.90
2020,08,14,08,55,17.90
2020,08,14,08,56,17.90
2020,08,14,08,57,17.90
2020,08,14,08,58,17.90
2020,08,14,08,59,17.80
2020,08,14,09,00,17.90
2020,08,14,09,01,17.90
2020,08,14,09,02,18.00
2020,08,14,09,03,18.10
2020,08,14,09,04,18.10
2020,08,14,09,05,18.10
2020,08,14,09,06,18.10
2020,08,14,09,07,18.00
2020,08,14,09,08,17.90
2020,08,14,09,09,17.90
2020,08,14,09,10,17.90
2020,08,14,09,11,17.80
2020,08,14,09,12,17.80
2020,08,14,09,13,17.80
2020,08,14,09,14,17.80
2020,08,14,09,15,17.90
2020,08,14,09,16,18.10
2020,08,14,09,17,18.20
2020,08,14,09,18,18.30
2020,08,14,09,19,18.50
2020,08,14,09,20,18.60
2020,08,14,09,21,18.60
2020,08,14,09,22,18.60
2020,08,14,09,23,18.70
2020,08,14,09,24,18.70
2020,08,14,09,25,18.80
2020,08,14,09,26,18.90
2020,08,14,09,27,18.90
2020,08,14,09,28,18.90
2020,08,14,09,29,18.90
2020,08,14,09,30,18.90
2020,08,14,09,31,18.90
2020,08,14,09,32,18.90
2020,08,14,09,33,18.90
2020,08,14,09,34,18.90
2020,08,14,09,35,18.90
2020,08,14,09,36,19.00
2020,08,14,09,37,19.10
2020,08,14,09,38,19.10
2020,08,14,09,39,19.10
2020,08,14,09,40,19.10
2020,08,14,09,41,19.10
2020,08,14,09,42,19.20
2020,08,14,09,43,19.20
2020,08,14,09,44,19.30
2020,08,14,09,45,19.30
2020,08,14,09,46,19.30
2020,08,14,09,47,19.20
2020,08,14,09,48,19.20
2020,08,14,09,49,19.20
2020,08,14,09,50,19.20
2020,08,14,09,51,19.20
2020,08,14,09,52,19.20
2020,08,14,09,53,19.20
2020,08,14,09,54,19.20
2020,08,14,09,55,19.30
2020,08,14,09,56,19.30
2020,08,14,09,57,19.30
2020,08,14,09,58,19.30
2020,08,14,09,59,19.30
2020,08,14,10,00,19.30
2020,08,14,10,01,19.30
2020,08,14,10,02,19.30
2020,08,14,10,03,19.30
2020,08,14,10,04,19.40
2020,08,14,10,05,19.50
2020,08,14,10,06,19.60
2020,08,14,10,07,19.80
2020,08,14,10,08,19.90
2020,08,14,10,09,19.90
2020,08,14,10,10,20.00
2020,08,14,10,11,20.00
2020,08,14,10,12,19.90
2020,08,14,10,13,19.90
2020,08,14,10,14,19.80
2020,08,14,10,15,19.70
2020,08,14,10,16,19.60
2020,08,14,10,17,19.50
2020,08,14,10,18,19.40
2020,08,14,10,19,19.50
2020,08,14,10,20,19.50
2020,08,14,10,21,19.60
2020,08,14,10,22,19.70
2020,08,14,10,23,19.70
2020,08,14,10,24,19.70
2020,08,14,10,25,19.70
2020,08,14,10,26,19.80
2020,08,14,10,27,19.80
2020,08,14,10,28,19.70
2020,08,14,10,29,19.70
2020,08,14,10,30,19.80
2020,08,14,10,31,19.80
2020,08,14,10,32,19.90
2020,08,14,10,33,20.00
2020,08,14,10,34,20.20
2020,08,14,10,35,20.20
2020,08,14,10,36,20.30
2020,08,14,10,37,20.40
2020,08,14,10,38,20.40
2020,08,14,10,39,20.40
2020,08,14,10,40,20.40
2020,08,14,10,41,20.30
2020,08,14,10,42,20.40
2020,08,14,10,43,20.50
2020,08,14,10,44,20.60
2020,08,14,10,45,20.60
2020,08,14,10,46,20.70
2020,08,14,10,47,20.80
2020,08,14,10,48,20.90
2020,08,14,10,49,21.00
2020,08,14,10,50,21.10
2020,08,14,10,51,21.00
2020,08,14,10,52,21.00
2020,08,14,10,53,20.80
2020,08,14,10,54,20.80
2020,08,14,10,55,20.80
2020,08,14,10,56,20.90
2020,08,14,10,57,20.90
2020,08,14,10,58,20.90
2020,08,14,10,59,21.00
2020,08,14,11,00,21.10
2020,08,14,11,01,21.10
2020,08,14,11,02,21.10
2020,08,14,11,03,21.10
2020,08,14,11,04,21.00
2020,08,14,11,05,20.90
2020,08,14,11,06,20.80
2020,08,14,11,07,20.70
2020,08,14,11,08,20.80
2020,08,14,11,09,20.80
2020,08,14,11,10,20.80
2020,08,14,11,11,20.80
2020,08,14,11,12,20.80
2020,08,14,11,13,20.90
2020,08,14,11,14,20.90
2020,08,14,11,15,21.00
2020,08,14,11,16,21.10
2020,08,14,11,17,21.20
2020,08,14,11,18,21.30
2020,08,14,11,19,21.40
2020,08,14,11,20,21.40
2020,08,14,11,21,21.30
2020,08,14,11,22,21.30
2020,08,14,11,23,21.30
2020,08,14,11,24,21.40
2020,08,14,11,25,21.40
2020,08,14,11,26,21.40
2020,08,14,11,27,21.50
2020,08,14,11,28,21.60
2020,08,14,11,29,21.60
2020,08,14,11,30,21.60
2020,08,14,11,31,21.60
2020,08,14,11,32,21.60
2020,08,14,11,33,21.40
2020,08,14,11,34,21.30
2020,08,14,11,35,21.30
2020,08,14,11,36,21.20
2020,08,14,11,37,21.00
2020,08,14,11,38,20.80
2020,08,14,11,39,20.50
2020,08,14,11,40,20.40
2020,08,14,11,41,20.40
2020,08,14,11,42,20.50
2020,08,14,11,43,20.50
2020,08,14,11,44,20.60
2020,08,14,11,45,20.60
2020,08,14,11,46,20.70
2020,08,14,11,47,20.80
2020,08,14,11,48,20.80
2020,08,14,11,49,20.80
2020,08,14,11,50,20.90
2020,08,14,11,51,20.90
2020,08,14,11,52,20.90
2020,08,14,11,53,21.00
2020,08,14,11,54,21.10
2020,08,14,11,55,21.30
2020,08,14,11,56,21.40
2020,08,14,11,57,21.50
2020,08,14,11,58,21.60
2020,08,14,11,59,21.60
2020,08,14,12,00,21.60
2020,08,14,12,01,21.50
2020,08,14,12,02,21.40
2020,08,14,12,03,21.40
2020,08,14,12,04,21.40
2020,08,14,12,05,21.40
2020,08,14,12,06,21.60
2020,08,14,12,07,21.60
2020,08,14,12,08,21.80
2020,08,14,12,09,21.90
2020,08,14,12,10,22.00
2020,08,14,12,11,22.10
2020,08,14,12,12,22.20
2020,08,14,12,13,22.30
2020,08,14,12,14,22.30
2020,08,14,12,15,22.20
2020,08,14,12,16,22.00
2020,08,14,12,17,22.00
2020,08,14,12,18,21.90
2020,08,14,12,19,21.80
2020,08,14,12,20,21.80
2020,08,14,12,21,21.80
2020,08,14,12,22,21.70
2020,08,14,12,23,21.60
2020,08,14,12,24,21.50
2020,08,14,12,25,21.40
2020,08,14,12,26,21.30
2020,08,14,12,27,21.20
2020,08,14,12,28,21.20
2020,08,14,12,29,21.20
2020,08,14,12,30,21.20
2020,08,14,12,31,21.10
2020,08,14,12,32,21.10
2020,08,14,12,33,21.10
2020,08,14,12,34,21.00
2020,08,14,12,35,21.00
2020,08,14,12,36,21.10
2020,08,14,12,37,21.20
2020,08,14,12,38,21.20
2020,08,14,12,39,21.30
2020,08,14,12,40,21.30
2020,08,14,12,41,21.30
2020,08,14,12,42,21.30
2020,08,14,12,43,21.20
2020,08,14,12,44,21.20
2020,08,14,12,45,21.20
2020,08,14,12,46,21.30
2020,08,14,12,47,21.50
2020,08,14,12,48,21.60
2020,08,14,12,49,21.60
2020,08,14,12,50,21.60
2020,08,14,12,51,21.60
2020,08,14,12,52,21.60
2020,08,14,12,53,21.60
2020,08,14,12,54,21.60
2020,08,14,12,55,21.60
2020,08,14,12,56,21.50
2020,08,14,12,57,21.50
2020,08,14,12,58,21.60
2020,08,14,12,59,21.60
2020,08,14,13,00,21.60
2020,08,14,13,01,21.60
2020,08,14,13,02,21.60
2020,08,14,13,03,21.60
2020,08,14,13,04,21.50
2020,08,14,13,05,21.40
2020,08,14,13,06,21.30
2020,08,14,13,07,21.10
2020,08,14,13,08,21.00
2020,08,14,13,09,20.90
2020,08,14,13,10,20.90
2020,08,14,13,11,20.80
2020,08,14,13,12,20.90
2020,08,14,13,13,21.00
2020,08,14,13,14,21.10
2020,08,14,13,15,21.10
2020,08,14,13,16,21.00
2020,08,14,13,17,21.00
2020,08,14,13,18,20.90
2020,08,14,13,19,20.90
2020,08,14,13,20,20.90
2020,08,14,13,21,21.00
2020,08,14,13,22,21.00
2020,08,14,13,23,20.90
2020,08,14,13,24,20.90
2020,08,14,13,25,21.00
2020,08,14,13,26,21.00
2020,08,14,13,27,21.00
2020,08,14,13,28,20.90
2020,08,14,13,29,20.90
2020,08,14,13,30,21.00
2020,08,14,13,31,21.10
2020,08,14,13,32,21.10
2020,08,14,13,33,21.20
2020,08,14,13,34,21.30
2020,08,14,13,35,21.50
2020,08,14,13,36,21.60
2020,08,14,13,37,21.60
2020,08,14,13,38,21.50
2020,08,14,13,39,21.40
2020,08,14,13,40,21.40
2020,08,14,13,41,21.30
2020,08,14,13,42,21.30
2020,08,14,13,43,21.30
2020,08,14,13,44,21.20
2020,08,14,13,45,21.20
2020,08,14,13,46,21.20
2020,08,14,13,47,21.20
2020,08,14,13,48,21.20
2020,08,14,13,49,21.30
2020,08,14,13,50,21.30
2020,08,14,13,51,21.30
2020,08,14,13,52,21.50
2020,08,14,13,53,21.70
2020,08,14,13,54,21.70
2020,08,14,13,55,21.70
2020,08,14,13,56,21.60
2020,08,14,13,57,21.60
2020,08,14,13,58,21.60
2020,08,14,13,59,21.60
2020,08,14,14,00,21.70
2020,08,14,14,01,21.70
2020,08,14,14,02,21.70
2020,08,14,14,03,21.70
2020,08,14,14,04,21.60
2020,08,14,14,05,21.60
2020,08,14,14,06,21.60
2020,08,14,14,07,21.70
2020,08,14,14,08,21.70
2020,08,14,14,09,21.60
2020,08,14,14,10,21.60
2020,08,14,14,11,21.60
2020,08,14,14,12,21.60
2020,08,14,14,13,21.60
2020,08,14,14,14,21.60
2020,08,14,14,15,21.60
2020,08,14,14,16,21.60
2020,08,14,14,17,21.60
2020,08,14,14,18,21.70
2020,08,14,14,19,21.70
2020,08,14,14,20,21.70
2020,08,14,14,21,21.90
2020,08,14,14,22,21.90
2020,08,14,14,23,21.90
2020,08,14,14,24,22.00
2020,08,14,14,25,22.00
2020,08,14,14,26,21.90
2020,08,14,14,27,21.90
2020,08,14,14,28,21.90
2020,08,14,14,29,21.90
2020,08,14,14,30,21.90
2020,08,14,14,31,22.00
2020,08,14,14,32,22.10
2020,08,14,14,33,22.20
2020,08,14,14,34,22.20
2020,08,14,14,35,22.10
2020,08,14,14,36,22.00
2020,08,14,14,37,22.00
2020,08,14,14,38,22.00
2020,08,14,14,39,22.00
2020,08,14,14,40,22.00
2020,08,14,14,41,22.10
2020,08,14,14,42,22.20
2020,08,14,14,43,22.10
2020,08,14,14,44,22.10
2020,08,14,14,45,22.10
2020,08,14,14,46,22.00
2020,08,14,14,47,22.00
2020,08,14,14,48,22.10
2020,08,14,14,49,22.10
2020,08,14,14,50,22.10
2020,08,14,14,51,22.00
2020,08,14,14,52,21.90
2020,08,14,14,53,21.70
2020,08,14,14,54,21.80
2020,08,14,14,55,21.90
2020,08,14,14,56,21.90
2020,08,14,14,57,21.70
2020,08,14,14,58,21.80
2020,08,14,14,59,21.90
2020,08,14,15,00,22.00
2020,08,14,15,01,22.00
2020,08,14,15,02,22.10
2020,08,14,15,03,22.00
2020,08,14,15,04,22.10
2020,08,14,15,05,22.10
2020,08,14,15,06,22.20
2020,08,14,15,07,22.20
2020,08,14,15,08,22.10
2020,08,14,15,09,22.10
2020,08,14,15,10,22.00
2020,08,14,15,11,22.00
2020,08,14,15,12,22.00
2020,08,14,15,13,22.00
2020,08,14,15,14,22.10
2020,08,14,15,15,22.10
2020,08,14,15,16,22.10
2020,08,14,15,17,22.00
2020,08,14,15,18,22.00
2020,08,14,15,19,22.10
2020,08,14,15,20,22.10
2020,08,14,15,21,22.00
2020,08,14,15,22,21.90
2020,08,14,15,23,21.90
2020,08,14,15,24,21.90
2020,08,14,15,25,21.90
2020,08,14,15,26,21.90
2020,08,14,15,27,21.90
2020,08,14,15,28,21.90
2020,08,14,15,29,21.90
2020,08,14,15,30,22.00
2020,08,14,15,31,22.00
2020,08,14,15,32,22.20
2020,08,14,15,33,22.30
2020,08,14,15,34,22.30
2020,08,14,15,35,22.20
2020,08,14,15,36,22.10
2020,08,14,15,37,22.00
2020,08,14,15,38,22.00
2020,08,14,15,39,22.00
2020,08,14,15,40,22.00
2020,08,14,15,41,22.10
2020,08,14,15,42,22.20
2020,08,14,15,43,22.30
2020,08,14,15,44,22.30
2020,08,14,15,45,22.30
2020,08,14,15,46,22.30
2020,08,14,15,47,22.40
2020,08,14,15,48,22.40
2020,08,14,15,49,22.30
2020,08,14,15,50,22.30
2020,08,14,15,51,22.20
2020,08,14,15,52,22.20
2020,08,14,15,53,22.10
2020,08,14,15,54,22.10
2020,08,14,15,55,22.20
2020,08,14,15,56,22.20
2020,08,14,15,57,22.10
2020,08,14,15,58,22.10
2020,08,14,15,59,22.20
2020,08,14,16,00,22.30
2020,08,14,16,01,22.30
2020,08,14,16,02,22.30
2020,08,14,16,03,22.40
2020,08,14,16,04,22.40
2020,08,14,16,05,22.30
2020,08,14,16,06,22.30
2020,08,14,16,07,22.40
2020,08,14,16,08,22.40
2020,08,14,16,09,22.40
2020,08,14,16,10,22.50
2020,08,14,16,11,22.50
2020,08,14,16,12,22.50
2020,08,14,16,13,22.50
2020,08,14,16,14,22.50
2020,08,14,16,15,22.40
2020,08,14,16,16,22.40
2020,08,14,16,17,22.40
2020,08,14,16,18,22.40
2020,08,14,16,19,22.50
2020,08,14,16,20,22.40
2020,08,14,16,21,22.40
2020,08,14,16,22,22.40
2020,08,14,16,23,22.30
2020,08,14,16,24,22.30
2020,08,14,16,25,22.30
2020,08,14,16,26,22.30
2020,08,14,16,27,22.40
2020,08,14,16,28,22.40
2020,08,14,16,29,22.40
2020,08,14,16,30,22.40
2020,08,14,16,31,22.40
2020,08,14,16,32,22.40
2020,08,14,16,33,22.30
2020,08,14,16,34,22.20
2020,08,14,16,35,22.20
2020,08,14,16,36,22.30
2020,08,14,16,37,22.40
2020,08,14,16,38,22.40
2020,08,14,16,39,22.50
2020,08,14,16,40,22.40
2020,08,14,16,41,22.30
2020,08,14,16,42,22.30
2020,08,14,16,43,22.30
2020,08,14,16,44,22.40
2020,08,14,16,45,22.40
2020,08,14,16,46,22.40
2020,08,14,16,47,22.40
2020,08,14,16,48,22.30
2020,08,14,16,49,22.30
2020,08,14,16,50,22.30
2020,08,14,16,51,22.30
2020,08,14,16,52,22.30
2020,08,14,16,53,22.30
2020,08,14,16,54,22.30
2020,08,14,16,55,22.30
2020,08,14,16,56,22.30
2020,08,14,16,57,22.40
2020,08,14,16,58,22.30
2020,08,14,16,59,22.30
2020,08,14,17,00,22.30
2020,08,14,17,01,22.30
2020,08,14,17,02,22.40
2020,08,14,17,03,22.30
2020,08,14,17,04,22.40
2020,08,14,17,05,22.50
2020,08,14,17,06,22.60
2020,08,14,17,07,22.70
2020,08,14,17,08,22.80
2020,08,14,17,09,22.70
2020,08,14,17,10,22.70
2020,08,14,17,11,22.80
2020,08,14,17,12,22.80
2020,08,14,17,13,22.80
2020,08,14,17,14,22.80
2020,08,14,17,15,22.80
2020,08,14,17,16,22.80
2020,08,14,17,17,22.80
2020,08,14,17,18,22.70
2020,08,14,17,19,22.60
2020,08,14,17,20,22.60
2020,08,14,17,21,22.60
2020,08,14,17,22,22.60
2020,08,14,17,23,22.60